DateTimeUTC,F1_A11,F1_S11,BsB_S11,BsG_S11,BsR_S11,BbsB_S11,BbsG_S11,BbsR_S11,BaB_A11,BaG_A11,BaR_A11,Tu_S11,T_S11,Uu_S11,U_S11,P_S11,T1_A11
2021-07-26T19:00:00Z,00000200,20000000,,,,,,,-000.17,0000.12,-000.14,20.6,27.2,07.4,05.0,0679.0,31.2
2021-07-26T19:01:00Z,00000200,20000000,,,,,,,0000.17,-000.11,-000.21,20.6,27.2,07.2,04.9,0679.0,31.2
2021-07-26T19:02:00Z,00000200,20000000,,,,,,,-000.43,0000.11,0000.11,20.6,27.2,07.1,04.8,0679.0,31.2
2021-07-26T19:03:00Z,00000200,60000000,,,,,,,0000.82,0000.68,0000.54,20.6,27.2,07.1,04.8,0679.0,31.2
2021-07-26T19:04:00Z,00000200,40000000,0000.68,0000.33,0000.19,0000.50,0000.12,-000.19,-000.34,-000.23,-000.30,20.7,27.1,07.4,05.0,0679.9,31.2
2021-07-26T19:05:00Z,00000200,00000000,0000.87,0000.10,0000.58,0000.20,0000.02,-000.02,0000.02,-000.06,0000.29,20.7,27.0,07.5,05.1,0680.0,31.2
2021-07-26T19:06:00Z,00000200,00000000,0001.35,0000.15,0000.03,0000.76,-000.14,-000.16,0000.27,-000.12,-000.24,20.7,27.0,07.5,05.1,0680.0,31.2
2021-07-26T19:07:00Z,00000200,00000000,0000.10,0000.15,0000.40,0000.78,-000.13,-000.06,-000.07,0000.05,-000.15,20.7,27.0,07.5,05.1,0680.0,31.2
2021-07-26T19:08:00Z,00000200,00000000,-000.26,0000.13,0000.19,0000.58,0000.13,-000.17,0000.09,0000.02,0000.27,20.7,27.0,07.4,05.1,0680.0,31.2
2021-07-26T19:09:00Z,00000200,00000000,0000.86,0000.34,0000.60,0000.53,0000.34,-000.23,-000.36,-000.10,-000.13,20.7,27.0,07.4,05.1,0680.0,31.2
2021-07-26T19:10:00Z,00000200,00000000,0000.37,0000.32,0000.02,0000.42,0000.28,-000.06,0000.08,-000.12,0000.32,20.7,27.0,07.3,05.0,0680.0,31.2
2021-07-26T19:11:00Z,00000200,00000000,0000.37,0000.23,-000.05,0000.87,0000.00,-000.11,0000.27,0000.28,-000.33,20.7,27.0,07.4,05.1,0680.1,31.2
2021-07-26T19:12:00Z,00000200,00000000,0000.38,0000.03,0000.47,0000.83,0000.01,0000.57,-000.11,0000.20,0000.10,20.7,27.0,07.4,05.1,0680.1,31.2
2021-07-26T19:13:00Z,00000200,00000000,0000.53,0000.53,0000.22,0000.43,0000.04,0000.15,0000.45,0000.03,0000.62,20.7,27.0,07.4,05.1,0680.1,31.2
2021-07-26T19:14:00Z,00000200,00000000,0000.16,0000.26,0000.45,-000.01,0000.14,0000.02,-000.37,-000.03,-000.15,20.7,27.0,07.6,05.3,0680.1,31.2
2021-07-26T19:15:00Z,00000200,00000000,0000.24,0000.13,0000.19,0000.53,0000.19,-000.07,0000.11,-000.10,-000.26,20.7,27.0,07.5,05.2,0680.1,31.2
2021-07-26T19:16:00Z,00000200,00000000,0000.21,0000.06,-000.06,0000.26,0000.10,-000.38,-000.21,0000.40,-000.00,20.7,27.0,07.5,05.2,0680.1,31.2
2021-07-26T19:17:00Z,00000200,00000000,-000.83,0000.21,0000.12,0000.38,0000.13,0000.10,0000.41,-000.41,0000.16,20.7,27.0,07.4,05.1,0680.1,31.2
2021-07-26T19:18:00Z,00000200,00000000,0000.88,0000.20,0000.48,0000.57,-000.06,-000.05,-000.13,0000.06,-000.38,20.7,27.0,07.4,05.1,0680.1,31.2
2021-07-26T19:19:00Z,00000200,00000000,0000.34,0000.26,-000.10,0000.64,0000.06,-000.14,-000.20,-000.08,0000.08,20.7,27.0,07.5,05.1,0680.1,31.2
2021-07-26T19:20:00Z,00000200,00000000,0001.04,0000.13,0000.36,0000.07,0000.16,-000.15,0000.19,0000.18,0000.17,20.7,27.0,07.3,05.0,0680.1,31.2
2021-07-26T19:21:00Z,00000200,00000000,0000.33,-000.10,0000.20,-000.00,0000.03,-000.31,-000.08,0000.12,-000.28,20.7,27.0,07.3,05.0,0680.1,31.2
2021-07-26T19:22:00Z,00000200,00000000,0000.28,0000.15,0000.22,0000.82,0000.33,-000.28,-000.04,-000.23,0000.32,20.7,27.0,07.4,05.0,0680.1,31.2
2021-07-26T19:23:00Z,00000200,00000000,0000.26,0000.15,0000.31,0000.88,0000.10,-000.21,0000.10,-000.14,-000.03,20.7,27.0,07.3,05.0,0680.1,31.2
2021-07-26T19:24:00Z,00000200,00000000,0000.48,0000.57,0000.28,0000.96,0000.16,-000.05,-000.01,0000.51,0000.33,20.7,27.0,07.5,05.1,0680.1,31.2
2021-07-26T19:25:00Z,00000200,00000000,0000.17,0000.30,0000.56,0000.55,0000.02,-000.04,-000.12,0000.04,-000.43,20.7,27.0,07.5,05.2,0680.1,31.2
2021-07-26T19:26:00Z,00000200,00000000,0000.50,-000.17,0000.75,-000.20,-000.38,0000.06,0000.07,-000.20,0000.08,20.7,27.0,07.5,05.1,0680.1,31.2
2021-07-26T19:27:00Z,00000200,00000000,-000.10,0000.17,0000.14,0000.00,0000.16,-000.25,0000.10,-000.42,0000.11,20.7,26.9,07.5,05.1,0680.1,31.2
2021-07-26T19:28:00Z,00000200,00000000,0000.20,-000.33,0000.42,-000.01,0000.27,0000.19,-000.12,-000.03,-000.42,20.7,27.0,07.4,05.1,0680.1,31.2
2021-07-26T19:29:00Z,00000200,00000000,0000.33,0000.50,-000.05,0000.18,-000.15,-000.25,-000.05,0000.39,0000.18,20.7,26.9,07.4,05.1,0680.1,31.2
2021-07-26T19:30:00Z,00000200,00000000,-000.11,0000.04,0000.37,0000.29,0000.15,-000.19,-000.13,-000.30,0000.14,20.7,26.9,07.4,05.0,0680.1,31.2
2021-07-26T19:31:00Z,00000200,00000000,0000.25,0000.18,0000.14,0000.37,0000.28,-000.13,0000.31,0000.11,-000.01,20.7,27.0,07.3,05.0,0680.1,31.2
2021-07-26T19:32:00Z,00000200,00000000,0000.25,0000.39,0000.09,0000.13,0000.04,-000.14,-000.02,-000.21,0000.03,20.7,27.0,07.4,05.1,0680.1,31.2
2021-07-26T19:33:00Z,00000200,00000000,-000.04,0000.20,0000.11,0000.44,0000.00,-000.60,-000.41,0000.34,-000.02,20.7,27.0,07.4,05.1,0680.1,31.2
2021-07-26T19:34:00Z,00000200,00000000,0000.61,0000.10,0000.63,0000.15,0000.10,0000.09,0000.50,-000.14,0000.39,20.7,26.9,07.4,05.1,0680.1,31.2
2021-07-26T19:35:00Z,00000200,00000000,0000.37,-000.25,0000.45,0000.48,0000.17,0000.09,0000.36,0000.26,-000.00,20.7,26.9,07.4,05.1,0680.1,31.2
2021-07-26T19:36:00Z,00000200,00000000,0000.68,0000.34,0000.46,0000.53,0000.13,-000.18,0000.05,0000.13,0000.02,20.7,27.0,07.6,05.2,0680.1,31.2
2021-07-26T19:37:00Z,00000200,00000000,-000.08,0000.00,0000.25,0000.94,-000.09,-000.00,-000.01,0000.17,0000.04,20.7,26.9,07.6,05.2,0680.1,31.2
2021-07-26T19:38:00Z,00000200,00000000,0000.38,0000.45,0000.38,-000.27,0000.22,-000.12,0000.52,0000.42,0000.14,20.7,26.9,07.8,05.3,0680.1,31.2
2021-07-26T19:39:00Z,00000200,00000000,0000.36,0000.21,0000.48,0000.27,0000.12,-000.05,-000.16,-000.04,-000.01,20.6,26.9,07.8,05.3,0680.1,31.2
2021-07-26T19:40:00Z,00000200,00000000,0000.52,0000.46,0000.35,0000.67,0000.08,-000.03,-000.18,0000.39,0000.37,20.6,26.9,07.8,05.3,0680.1,31.2
2021-07-26T19:41:00Z,00000200,00000000,0000.81,0000.31,-000.10,0000.32,0000.34,-000.47,0000.60,-000.42,0000.06,20.6,26.9,07.8,05.3,0680.1,31.2
2021-07-26T19:42:00Z,00000200,00000000,-000.16,0000.28,0000.12,0000.51,0000.10,-000.05,0000.12,0000.48,0000.08,20.6,26.9,07.8,05.3,0680.1,31.2
2021-07-26T19:43:00Z,00000200,00000000,0000.43,0000.05,0000.14,0000.46,-000.14,-000.09,0000.36,0000.22,0000.53,20.6,26.9,08.0,05.5,0680.2,31.2
2021-07-26T19:44:00Z,00000200,00000000,0000.82,0000.10,0000.22,0000.71,-000.11,-000.14,0000.10,-000.07,-000.17,20.6,26.9,08.1,05.6,0680.2,31.2
2021-07-26T19:45:00Z,00000200,00000000,0000.82,-000.23,0000.11,0000.00,0000.11,0000.05,0000.06,0000.45,0000.12,20.6,26.9,08.1,05.6,0680.2,31.2
2021-07-26T19:46:00Z,00000200,00000000,0000.80,0000.35,0000.59,0000.50,0000.15,-000.12,-000.66,-000.56,-000.45,20.6,26.9,08.1,05.6,0680.1,31.2
2021-07-26T19:47:00Z,00000200,00000000,0000.82,0000.20,0000.36,-000.37,0000.21,0000.03,-000.09,-000.47,0000.10,20.6,26.9,07.9,05.4,0680.1,31.2
2021-07-26T19:48:00Z,00000200,00000000,0000.25,0000.22,0000.60,0000.59,0000.03,-000.41,0000.20,0000.42,-000.00,20.6,26.9,07.9,05.4,0680.2,31.2
2021-07-26T19:49:00Z,00000200,00000000,0000.58,0000.18,0000.23,0000.02,0000.21,0000.11,-000.45,-000.12,-000.10,20.5,26.8,07.8,05.4,0680.2,31.2
2021-07-26T19:50:00Z,00000200,00000000,0000.89,0000.29,0000.40,0000.02,0000.32,-000.08,0000.18,0000.09,0000.28,20.5,26.9,07.8,05.4,0680.2,31.2
2021-07-26T19:51:00Z,00000200,00000000,-000.15,0000.16,0000.48,0000.96,0000.12,-000.18,0000.18,0000.16,0000.04,20.5,26.8,07.8,05.3,0680.2,31.2
2021-07-26T19:52:00Z,00000200,00000000,0000.31,0000.12,0000.13,0000.12,0000.05,-000.29,0000.17,-000.22,-000.17,20.5,26.9,07.8,05.3,0680.2,31.2
2021-07-26T19:53:00Z,00000200,00000000,0000.18,0000.34,0000.01,0000.36,0000.07,-000.17,-000.16,0000.38,0000.20,20.5,26.8,07.8,05.3,0680.2,31.2
2021-07-26T19:54:00Z,00000200,00000000,-000.04,-000.25,0000.08,0000.09,0000.25,-000.38,0000.07,-000.27,-000.18,20.5,26.8,07.8,05.3,0680.2,31.2
2021-07-26T19:55:00Z,00000200,00000000,0000.12,0000.12,0000.15,0000.78,0000.15,-000.07,-000.05,-000.04,-000.10,20.5,26.8,07.9,05.4,0680.2,31.2
2021-07-26T19:56:00Z,00000200,00000000,0000.94,0000.31,0000.32,-000.27,0000.37,-000.09,0000.41,0000.45,0000.01,20.5,26.8,07.9,05.4,0680.2,31.2
2021-07-26T19:57:00Z,00000200,40000000,,,,,,,-000.28,-000.34,0000.07,20.5,26.8,07.9,05.4,0680.2,31.2
2021-07-26T19:58:00Z,00000200,60000000,,,,,,,0000.12,0000.05,0000.00,20.3,26.9,07.8,05.2,0679.3,31.2
2021-07-26T19:59:00Z,00000200,20000000,,,,,,,-000.32,-000.18,-000.04,20.2,27.0,07.8,05.2,0679.3,31.2
